Albuquerque, NM

10:12 AM MDT on October 20, 2017 (GMT -0600)
Albuquerque International Sunport

Weather History for KABQ - January, 2014

Change the Weather History Date:

Wednesday, January 1, 2014

  Actual Average Record
Temperature  
Mean Temperature 41 °F 35 °F  
Max Temperature 55 °F 45 °F 62 °F (1981)
Min Temperature 26 °F 26 °F 3 °F (1959)
Degree Days  
Heating Degree Days 24 30  
Month to date heating degree days 24 30  
Since 1 July heating degree days 1818 1787  
Cooling Degree Days 0 0  
Month to date cooling degree days 0 0  
Year to date cooling degree days 0 0  
Moisture  
Dew Point 16 °F    
Average Humidity 44    
Maximum Humidity 68    
Minimum Humidity 19    
Precipitation  
Precipitation 0.00 in 0.01 in 0.16 in (2000)
Month to date precipitation 0.00 0.01  
Year to date precipitation 0.00 0.01  
Snow  
Snow 0.00 in - - ()
Month to date snowfall 0.0  
Since 1 July snowfall 4.9  
Snow Depth 0.00 in    
Sea Level Pressure  
Sea Level Pressure 30.18 in    
Wind  
Wind Speed 7 mph (NNE)    
Max Wind Speed 24 mph    
Max Gust Speed 31 mph    
Visibility 10 miles    
Events      
T = Trace of Precipitation, MM = Missing Value Source: NWS Daily Summary

Daily Weather History Graph

Daily Weather History Graph

Search for Another Location

Airport or City:

Trip Planner

Search our weather history database for the weather conditions in past years. The results will help you decide how hot, cold, wet, or windy it might be!

Date:

Astronomy

Jan. 01, 2014 Rise Set
Actual Time 7:14 AM MST 5:05 PM MST
Civil Twilight 6:46 AM MST 5:33 PM MST
Nautical Twilight 6:14 AM MST 6:05 PM MST
Astronomical Twilight 5:44 AM MST 6:36 PM MST
Moon 7:10 AM MST (1/1) 5:51 PM MST (1/1)
Length of Visible Light 10h 47m
Length of Day
9h 51m
New Moon, 0% of the Moon is Illuminated
Jan 1
New Moon
Jan 7
First Quarter
Jan 15
Full
Jan 23
Last Quarter
Jan 30
New

Hourly Weather History & Observations

Time (MST) Temp. Windchill Dew Point Humidity Pressure Visibility Wind Dir Wind Speed Gust Speed Precip Events Conditions
12:52 AM 30.0 °F 22.4 °F 17.1 °F 59% 30.14 in 10.0 mi SE 8.1 mph - N/A   Partly Cloudy
1:52 AM 30.9 °F 26.2 °F 17.1 °F 57% 30.13 in 10.0 mi SE 4.6 mph - N/A   Scattered Clouds
2:52 AM 30.9 °F 25.2 °F 17.1 °F 57% 30.11 in 10.0 mi SSE 5.8 mph - N/A   Scattered Clouds
3:52 AM 30.0 °F 24.1 °F 17.1 °F 59% 30.12 in 10.0 mi ESE 5.8 mph - N/A   Partly Cloudy
4:52 AM 27.0 °F 19.5 °F 17.1 °F 66% 30.12 in 10.0 mi SE 6.9 mph - N/A   Clear
5:52 AM 28.0 °F 24.2 °F 16.0 °F 61% 30.14 in 10.0 mi SE 3.5 mph - N/A   Clear
6:52 AM 27.0 °F 19.5 °F 16.0 °F 63% 30.19 in 10.0 mi SSE 6.9 mph - N/A   Clear
7:52 AM 30.0 °F - 17.1 °F 59% 30.18 in 10.0 mi Calm Calm - N/A   Clear
8:52 AM 35.1 °F - 18.0 °F 50% 30.19 in 10.0 mi Calm Calm - N/A   Clear
9:52 AM 43.0 °F 40.3 °F 19.0 °F 38% 30.18 in 10.0 mi NNW 4.6 mph - N/A   Clear
10:52 AM 46.9 °F - 18.0 °F 32% 30.17 in 10.0 mi Calm Calm - N/A   Partly Cloudy
11:52 AM 48.0 °F - 19.0 °F 32% 30.15 in 10.0 mi West 4.6 mph - N/A   Partly Cloudy
12:52 PM 54.0 °F - 17.1 °F 23% 30.10 in 10.0 mi NNW 19.6 mph 28.8 mph N/A   Partly Cloudy
1:52 PM 54.0 °F - 12.9 °F 20% 30.09 in 10.0 mi NNW 16.1 mph 27.6 mph N/A   Partly Cloudy
2:52 PM 54.0 °F - 12.0 °F 19% 30.10 in 10.0 mi North 13.8 mph - N/A   Scattered Clouds
3:52 PM 52.0 °F - 12.9 °F 21% 30.13 in 10.0 mi NW 15.0 mph - N/A   Scattered Clouds
4:52 PM 50.0 °F - 14.0 °F 24% 30.16 in 10.0 mi NNW 12.7 mph 20.7 mph N/A   Scattered Clouds
5:52 PM 48.0 °F - 15.1 °F 27% 30.20 in 10.0 mi NNW 11.5 mph - N/A   Scattered Clouds
6:52 PM 46.0 °F 43.1 °F 15.1 °F 29% 30.24 in 10.0 mi North 5.8 mph - N/A   Partly Cloudy
7:52 PM 45.0 °F 40.6 °F 16.0 °F 31% 30.25 in 10.0 mi NNW 8.1 mph - N/A   Clear
8:52 PM 42.1 °F 38.4 °F 16.0 °F 35% 30.27 in 10.0 mi NNE 5.8 mph - N/A   Clear
9:52 PM 32.0 °F - 16.0 °F 52% 30.30 in 10.0 mi Calm Calm - N/A   Clear
10:52 PM 37.0 °F 33.3 °F 15.1 °F 41% 30.28 in 10.0 mi Variable 4.6 mph - N/A   Clear
11:52 PM 33.1 °F - 17.1 °F 52% 30.30 in 10.0 mi Calm Calm - N/A   Clear